www.pogodaiklimat.ru

Погода и климат >> Архив погоды >> Россия >> Камчатский край >> Петропавловск-Камч. 2


ПОГОДА в Петропавловск-Камч. 2

  • Прогноз погоды в Петропавловск-Камч. 2
  • Монитор погоды в Петропавловск-Камч. 2
  • Климат города

АРХИВ ПОГОДЫ в Петропавловск-Камч. 2

Время (UTC), дата Ветер
(напр.,м/с)
 
Видим.   Явления Облачность Т
(С)
Тd
(С)
f
(%)
Тe
(С)
Тes
(С)
Комфортность P
(гПа)
Po
(гПа)
Тmin
(С)
Tmax
(С)
R
(мм)
R24
(мм)
S
(см)
15 11.12 С 1 20 км ясно -18.0 -21.4 75 -21 -21 1005.1 993.9
18 11.12 С 3 20 км ясно -10.4 -20.0 45 -16 -16 1005.1 994.2
21 11.12 С 3 50 км 1/0
[Ac trans]
-10.2 -19.2 48 -16 -16 1006.6 995.7 -18.2 41
00 12.12 СЗ 3 50 км 1/0
[Ac lent]
-7.4 -19.5 37 -13 -12 1008.2 997.4
03 12.12 СЗ 2 50 км 1/0
[Ci fib]
-5.6 -21.2 28 -9 -8 1008.9 998.1
06 12.12 З 1 50 км 1/0
[Ci fib]
-9.4 -22.2 34 -11 -11 1011.2 1000.3
09 12.12 С 2 20 км ясно -12.1 -21.3 46 -17 -17 1012.9 1001.8 -5.4
12 12.12 С 1 20 км 3/0
[Ci fib]
-14.2 -21.7 53 -17 -17 1014.4 1003.2
15 12.12 С 1 20 км ясно -13.7 -22.3 48 -16 -16 1013.9 1002.8
18 12.12 СЗ 1 20 км ясно -14.3 -22.3 51 -17 -17 1012.8 1001.6
21 12.12 С 2 50 км 3/1 600 м
[Sc Ac lent]
-14.0 -21.7 52 -19 -19 1012.6 1001.5 -15.7 41
00 13.12 СЗ 1 50 км 1/0
[Ci fib]
-11.3 -20.1 48 -13 -12 1011.0 1000.0
03 13.12 С 2 50 км 3/1 1000 м
[Sc Ci fib]
-9.3 -18.9 46 -13 -13 1007.9 997.0
06 13.12 С 1 50 км 1/0
[Ac lent]
-11.3 -18.4 56 -13 -13 1006.6 995.7
09 13.12 С 2 20 км ясно -13.3 -18.6 64 -18 -18 1006.6 995.6 -9.2
12 13.12 С 2 20 км ясно -12.5 -18.7 60 -17 -17 1006.2 995.2
15 13.12 СЗ 2 20 км ясно -13.8 -19.2 64 -19 -19 1005.9 994.9
18 13.12 С 2 20 км ясно -14.8 -20.5 62 -20 -20 1006.5 995.4
21 13.12 С 2 50 км ясно -16.2 -21.5 64 -21 -21 1007.2 996.0 -16.9 41
00 14.12 С 1 50 км 1/0
[Ci fib]
-11.6 -21.3 44 -14 -13 1007.1 996.1
03 14.12 СЗ 1 50 км 3/0
[Ci fib]
-9.2 -20.6 39 -11 -10 1005.6 994.7
06 14.12 СЗ 1 50 км 3/1 600 м
[Sc Ac lent]
-13.0 -22.7 44 -15 -15 1005.5 994.5
09 14.12 СЗ 1 20 км ясно -14.1 -23.2 46 -17 -17 1005.4 994.3 -7.5
12 14.12 С 2 20 км ясно -11.0 -17.4 59 -15 -15 1005.0 994.1
15 14.12 СЗ 1 20 км ясно -12.8 -17.5 68 -15 -15 1004.7 993.7
18 14.12 СЗ 1 20 км ясно -14.7 -18.6 72 -17 -17 1004.5 993.4
21 14.12 З 1 50 км ясно -18.0 -21.6 73 -21 -21 1005.0 993.8 -18.7 41
00 15.12 СЗ 2 50 км ясно -10.7 -20.8 43 -15 -14 1005.1 994.2
03 15.12 З 1 50 км ясно -6.9 -19.8 35 -9 -8 1004.0 993.3
06 15.12 СЗ 1 50 км ясно -9.7 -20.0 43 -12 -12 1004.2 993.3
09 15.12 СЗ 1 20 км ясно -12.4 -20.5 51 -15 -15 1004.7 993.7 -6.8
12 15.12 СЗ 2 20 км ясно -12.5 -21.0 49 -17 -17 1004.3 993.3
15 15.12 С 2 20 км ясно -15.4 -22.2 56 -20 -20 1003.9 992.8
18 15.12 С 2 20 км ясно -12.1 -20.2 51 -17 -17 1003.7 992.7
21 15.12 С 2 50 км ясно -14.7 -21.0 59 -20 -20 1004.3 993.2 -15.4 41
00 16.12 С 3 50 км ясно -11.4 -19.7 50 -17 -17 1004.1 993.1
03 16.12 СЗ 2 50 км ясно -7.9 -18.5 42 -12 -11 1003.2 992.4
06 16.12 СЗ 1 50 км ясно -9.7 -18.9 47 -12 -12 1004.5 993.6
09 16.12 СЗ 1 20 км ясно -10.9 -18.5 53 -13 -13 1005.4 994.5 -7.7
12 16.12 СЗ 1 20 км ясно -13.5 -18.7 65 -16 -16 1006.1 995.1
15 16.12 С 3 20 км ясно -10.1 -17.3 56 -16 -16 1007.1 996.2
18 16.12 С 2 20 км ясно -9.8 -17.4 54 -14 -14 1008.7 997.7
21 16.12 СЗ 1 50 км 3/0
[Ac lent]
-9.6 -17.9 51 -12 -12 1010.8 999.9 -14.8 41
00 17.12 СЗ 2 50 км 6/0
[Ac lent Ci fib]
-8.4 -18.5 44 -12 -12 1012.3 1001.4
03 17.12 СЗ 1 50 км 4/0
[Ac lent Ci fib]
-6.0 -17.3 40 -8 -7 1012.6 1001.8
06 17.12 штиль 0 50 км 5/0
[Ac lent]
-11.6 -17.7 61 -12 -12 1013.7 1002.7
09 17.12 СВ 1 20 км 10/4 600 м
[Sc Ac trans Ci]
-13.0 -16.8 73 -15 -15 1014.2 1003.1 -5.4
12 17.12 штиль 0 20 км 10/3 600 м
[Sc Ac trans Ci]
-12.9 -16.4 75 -13 -13 1013.0 1001.9
18 17.12 ЮВ 3 1000 м ливневой снег 10/10 300 м
[Cb cap]
-3.8 -5.0 91 -9 -9 1007.0 996.4

 

Местоположение метеостанции Петропавловск-Камч. 2 (Камчатский край, Россия): широта 53.08 долгота 158.50 высота над уровнем моря 84 м.

В архиве по умолчанию представлена погода в Петропавловск-Камч. 2 за последнюю неделю. Архивные данные за месяц целиком и за предыдущие месяцы, начиная с января 2011 года, Вы можете получить, выбрав интересующий диапазон дат из раскрывающегося списка и нажав кнопку "Ввод!".


*Определитесь, кто Вы:
робот инопланетянин человек

Внимание! Время в таблицах - всемирное. Для получения местного времени необходимо прибавить поправку, которая в Петропавловск-Камч. 2 равна 12 ч.

Смотрите также архив погоды в соседних городах и на ближайших метеорологических станциях:

Погода в Сосновке (Камчатский край, Россия) (13 км)
Погода в Петропавловск-Камчатском (Камчатский край, Россия) (24 км)
Погода в Петропавловском Маяке (Камчатский край, Россия) (26 км)
Погода в Начиках (Камчатский край, Россия) (54 км)
Погода в Пущино (Камчатский край, Россия) (127 км)
Погода в Водопадной (Камчатский край, Россия) (144 км)
Погода в Семячике (Камчатский край, Россия) (148 км)
Погода в Большерецке (Камчатский край, Россия) (150 км)
Погода в Мильково (Камчатский край, Россия) (178 км)
Погода в Соболево (Камчатский край, Россия) (218 км)

Пояснения к столбцам:

Ветер - указаны скорость ветра в м/с - средняя за 10 мин, порывы в срок и между сроками (в фигурных скобках) и направление, откуда дует ветер: С - северный, СВ - северо-восточный, В - восточный, ЮВ - юго-восточный, Ю - южный, ЮЗ - юго-западный, З - западный, СЗ - северо-западный.
Видимость - горизонтальная дальность видимости в метрах или километрах. При видимости от 1 до 10 км при отсутствии осадков обычно наблюдается дымка, при ухудшении видимости до 1 км и менее - туман. В сухую погоду видимость может ухудшаться дымом, пылью или мглою.
Явления - указаны атмосферные явления, наблюдавшиеся в срок или в последний час перед сроком; фигурными скобками обозначены явления, наблюдавшиеся между сроками (за 1-3 часа до срока); квадратными скобками обозначены град или гололедные отложения с указанием их диаметра в мм.
Облачность - указаны через наклонную черту общая и нижняя облачность в баллах и высота нижней границы облаков в метрах; квадратными скобками обозначены формы облаков: Ci - перистые, Cs - перисто-слоистые, Cc - перисто-кучевые, Ac - высококучевые, As - высокослоистые, Sc - слоисто-кучевые, Ns - слоисто-дождевые, Cu - кучевые, Cb - кучево-дождевые. Подробнее классификацию облаков см. в Атласе облаков (PDF).
T - Температура воздуха - температура, измеренная на высоте 2 м над землей.
Td - Температура точки росы - температура, при понижении до которой содержащийся в воздухе водяной пар достигнет насыщения.
f - Относительная влажность воздуха - влажноcть воздуха, измеренная на высоте 2 м над землей.
Te - Эффективная температура - температура, которую ощущает одетый по сезону человек в тени. Характеристика душности погоды. При расчете учитывается влияние влажности воздуха и скорости ветра на теплоощущения человека.
Tes - Эффективная температура на солнце - температура, которую ощущает человек, с поправкой на солнечный нагрев. Характеристика знойности погоды. Зависит от высоты солнца над горизонтом, облачности и скорости ветра. Ночью, в пасмурную погоду, а также при ветре 12 м/с и более поправка равна нулю.
P - Атмосферное давление - приведенное к уровню моря атмосферное давление.
Po - Атмосферное давление - измеренное на уровне метеостанции атмосферное давление.
Tmin - Минимальная температура - минимум температуры воздуха на высоте 2 м над землей.
Tmax - Максимальная температура - максимум температуры воздуха на высоте 2 м над землей.
R - Количество осадков - Количество выпавших осадков за период времени, мм. При наведении курсора мыши на число - период времени, за который выпало указанное количество осадков.
R24 - Количество осадков - Количество выпавших осадков за 24 часа, мм.
S - Снежный покров - Высота снежного покрова, см. При наведении курсора мыши на число - состояние снежного покрова и степень покрытия местности в баллах.